Weather History for MMCN - August, 2013

Change the Weather History Date:

Saturday, August 24, 2013

  Actual Average Record
Temperature  
Mean Temperature 80 °F -  
Max Temperature 84 °F 96 °F 107 °F (2001)
Min Temperature 77 °F 78 °F 75 °F (2004)
Cooling Degree Days 16    
Growing Degree Days 30 (Base 50)    
Moisture  
Dew Point 72 °F    
Average Humidity 74    
Maximum Humidity 89    
Minimum Humidity 66    
Precipitation  
Precipitation 0.00 in - - ()
Sea Level Pressure  
Sea Level Pressure 29.81 in    
Wind  
Wind Speed 4 mph ()    
Max Wind Speed 12 mph    
Max Gust Speed -    
Visibility 9.9 miles    
Events Rain    
Averages and records for this station are not official NWS values.
T = Trace of Precipitation, MM = Missing Value Source: Averaged Metar Reports

Daily Weather History Graph

Daily Weather History Graph

Search for Another Location

Airport or City:

Trip Planner

Search our weather history database for the weather conditions in past years. The results will help you decide how hot, cold, wet, or windy it might be!

Date:

Astronomy

Aug. 24, 2013 Rise Set
Actual Time 5:54 AM MST 6:47 PM MST
Civil Twilight 5:30 AM MST 7:11 PM MST
Nautical Twilight 5:02 AM MST 7:40 PM MST
Astronomical Twilight 4:33 AM MST 8:09 PM MST
Moon 9:13 PM MST (8/24) 9:30 AM MST (8/24)
Length of Visible Light 13h 41m
Length of Day
12h 53m
Waning Gibbous, 83% of the Moon is Illuminated
Aug 24
Waning Gibbous
Aug 28
Last Quarter
Sep 5
New
Sep 12
First Quarter
Sep 19
Full

Hourly Weather History & Observations

Time (MST) Temp. Heat Index Dew Point Humidity Pressure Visibility Wind Dir Wind Speed Gust Speed Precip Events Conditions
3:43 AM 78.8 °F - 69.8 °F 74% 29.81 in 10.0 mi NE 4.6 mph - N/A   Overcast
4:40 AM 78.8 °F - 71.6 °F 78% 29.80 in 10.0 mi North 3.5 mph - N/A   Overcast
5:42 AM 77.0 °F - 73.4 °F 89% 29.81 in 10.0 mi NNW 4.6 mph - N/A   Mostly Cloudy
6:47 AM 78.8 °F - 73.4 °F 83% 29.82 in 10.0 mi North 3.5 mph - N/A   Mostly Cloudy
7:45 AM 80.6 °F 84.6 °F 71.6 °F 74% 29.83 in 10.0 mi Calm Calm - N/A   Mostly Cloudy
8:42 AM 80.6 °F 85.4 °F 73.4 °F 79% 29.84 in 10.0 mi Calm Calm - N/A   Mostly Cloudy
9:43 AM 82.4 °F 87.2 °F 71.6 °F 70% 29.85 in 10.0 mi NW 3.5 mph - N/A   Mostly Cloudy
10:46 AM 80.6 °F 85.4 °F 73.4 °F 79% 29.86 in 8.0 mi NW 4.6 mph - N/A Rain Light Rain
11:45 AM 82.4 °F 88.2 °F 73.4 °F 74% 29.85 in 10.0 mi NNW 6.9 mph - N/A   Overcast
12:42 PM 82.4 °F 88.2 °F 73.4 °F 74% 29.85 in 10.0 mi NW 9.2 mph - N/A   Overcast
1:42 PM 82.4 °F 88.2 °F 73.4 °F 74% 29.84 in 10.0 mi NNW 11.5 mph - N/A   Overcast
2:42 PM 84.2 °F 90.9 °F 73.4 °F 70% 29.81 in 10.0 mi NNW 9.2 mph - N/A   Overcast
3:44 PM 84.2 °F 89.6 °F 71.6 °F 66% 29.78 in 10.0 mi NW 9.2 mph - N/A   Overcast
4:40 PM 84.2 °F 89.6 °F 71.6 °F 66% 29.75 in 10.0 mi NNW 8.1 mph - N/A   Overcast
5:52 PM 84.2 °F 89.6 °F 71.6 °F 66% 29.75 in 10.0 mi WNW 5.8 mph - N/A   Overcast
6:44 PM 84.2 °F 89.6 °F 71.6 °F 66% 29.76 in 10.0 mi North 5.8 mph - N/A   Overcast
7:44 PM 82.4 °F 87.2 °F 71.6 °F 70% 29.77 in 10.0 mi NNE 3.5 mph - N/A   Overcast
8:42 PM 80.6 °F 84.6 °F 71.6 °F 74% 29.79 in 10.0 mi Calm Calm - N/A   Mostly Cloudy
9:42 PM 80.6 °F 85.4 °F 73.4 °F 79% 29.81 in 10.0 mi ESE 5.8 mph - N/A   Mostly Cloudy